Time,TemperatureF,DewpointF,PressureIn,WindDirection,WindDirectionDegrees,WindSpeedMPH,WindSpeedGustMPH,Humidity,HourlyPrecipIn,Conditions,Clouds,dailyrainin,SoftwareType,DateUTC
2013-11-08 00:23:00,46.0,42.0,30.34,NNE,24,1.0,3.0,86,0.00,,,0.00,,2013-11-08 06:23:00,
2013-11-08 00:42:00,45.0,41.0,30.35,NNE,24,2.0,4.0,86,0.00,,,0.00,,2013-11-08 06:42:00,
2013-11-08 00:52:00,45.0,41.0,30.34,North,351,2.0,4.0,86,0.00,,,0.00,,2013-11-08 06:52:00,
2013-11-08 01:12:00,45.0,41.0,30.35,North,351,0.0,4.0,87,0.00,,,0.00,,2013-11-08 07:12:00,
2013-11-08 01:22:00,45.0,41.0,30.35,North,351,0.0,3.0,86,0.00,,,0.00,,2013-11-08 07:22:00,
2013-11-08 01:42:00,44.0,40.0,30.34,North,351,0.0,1.0,87,0.00,,,0.00,,2013-11-08 07:42:00,
2013-11-08 01:52:00,44.0,40.0,30.34,North,351,0.0,2.0,87,0.00,,,0.00,,2013-11-08 07:52:00,
2013-11-08 02:12:00,44.0,41.0,30.34,North,351,0.0,0.0,88,0.00,,,0.00,,2013-11-08 08:12:00,
2013-11-08 02:22:00,43.0,40.0,30.34,North,351,0.0,0.0,89,0.00,,,0.00,,2013-11-08 08:22:00,
2013-11-08 02:42:00,43.0,40.0,30.34,North,351,0.0,0.0,89,0.00,,,0.00,,2013-11-08 08:42:00,
2013-11-08 02:52:00,43.0,41.0,30.34,North,351,0.0,1.0,91,0.00,,,0.00,,2013-11-08 08:52:00,
2013-11-08 03:22:00,42.0,40.0,30.35,North,351,0.0,0.0,91,0.00,,,0.00,,2013-11-08 09:22:00,
2013-11-08 03:43:00,42.0,40.0,30.34,North,351,0.0,0.0,92,0.00,,,0.00,,2013-11-08 09:43:00,
2013-11-08 03:53:00,42.0,40.0,30.35,North,351,2.0,3.0,92,0.00,,,0.00,,2013-11-08 09:53:00,
2013-11-08 04:12:00,41.0,39.0,30.34,North,351,0.0,1.0,91,0.00,,,0.00,,2013-11-08 10:12:00,
2013-11-08 04:23:00,40.0,38.0,30.34,North,351,0.0,2.0,92,0.00,,,0.00,,2013-11-08 10:23:00,
2013-11-08 04:43:00,40.0,38.0,30.34,North,351,0.0,2.0,93,0.00,,,0.00,,2013-11-08 10:43:00,
2013-11-08 04:53:00,40.0,38.0,30.34,North,351,0.0,0.0,94,0.00,,,0.00,,2013-11-08 10:53:00,
2013-11-08 05:22:00,40.0,38.0,30.35,North,351,0.0,0.0,94,0.00,,,0.00,,2013-11-08 11:22:00,
2013-11-08 05:42:00,40.0,38.0,30.34,North,351,0.0,0.0,94,0.00,,,0.00,,2013-11-08 11:42:00,
2013-11-08 05:52:00,41.0,40.0,30.34,North,351,0.0,0.0,95,0.00,,,0.00,,2013-11-08 11:52:00,
2013-11-08 06:11:00,41.0,39.0,30.35,North,351,0.0,0.0,94,0.00,,,0.00,,2013-11-08 12:11:00,
2013-11-08 06:21:00,40.0,38.0,30.35,North,351,0.0,0.0,94,0.00,,,0.00,,2013-11-08 12:21:00,
2013-11-08 06:42:00,40.0,38.0,30.35,North,351,0.0,0.0,94,0.00,,,0.00,,2013-11-08 12:42:00,
2013-11-08 06:52:00,40.0,38.0,30.36,North,351,0.0,0.0,94,0.00,,,0.00,,2013-11-08 12:52:00,
2013-11-08 07:11:00,40.0,39.0,30.36,North,351,0.0,0.0,95,0.00,,,0.00,,2013-11-08 13:11:00,
2013-11-08 07:21:00,40.0,39.0,30.36,North,351,0.0,0.0,95,0.00,,,0.00,,2013-11-08 13:21:00,
2013-11-08 07:42:00,41.0,40.0,30.36,North,351,0.0,2.0,95,0.00,,,0.00,,2013-11-08 13:42:00,
2013-11-08 07:52:00,41.0,40.0,30.36,North,351,3.0,5.0,95,0.00,,,0.00,,2013-11-08 13:52:00,
2013-11-08 08:11:00,43.0,42.0,30.36,North,355,2.0,5.0,96,0.00,,,0.00,,2013-11-08 14:11:00,
2013-11-08 08:22:00,44.0,43.0,30.37,North,355,0.0,3.0,96,0.00,,,0.00,,2013-11-08 14:22:00,
2013-11-08 08:42:00,46.0,44.0,30.37,North,355,0.0,3.0,94,0.00,,,0.00,,2013-11-08 14:42:00,
2013-11-08 08:52:00,48.0,45.0,30.37,NE,39,3.0,6.0,88,0.00,,,0.00,,2013-11-08 14:52:00,
2013-11-08 09:11:00,49.0,44.0,30.37,NE,38,2.0,5.0,84,0.00,,,0.00,,2013-11-08 15:11:00,
2013-11-08 09:22:00,50.0,44.0,30.37,NE,52,3.0,5.0,81,0.00,,,0.00,,2013-11-08 15:22:00,
2013-11-08 09:44:00,52.0,45.0,30.37,NE,36,5.0,7.0,77,0.00,,,0.00,,2013-11-08 15:44:00,
2013-11-08 09:53:00,53.0,44.0,30.37,ENE,67,5.0,8.0,71,0.00,,,0.00,,2013-11-08 15:53:00,
2013-11-08 10:13:00,53.0,44.0,30.37,NE,40,2.0,8.0,71,0.00,,,0.00,,2013-11-08 16:13:00,
2013-11-08 10:23:00,55.0,43.0,30.37,East,87,3.0,9.0,65,0.00,,,0.00,,2013-11-08 16:23:00,
2013-11-08 10:42:00,56.0,43.0,30.37,NE,53,4.0,9.0,62,0.00,,,0.00,,2013-11-08 16:42:00,
2013-11-08 10:53:00,57.0,44.0,30.37,SE,138,3.0,5.0,61,0.00,,,0.00,,2013-11-08 16:53:00,
2013-11-08 11:22:00,58.0,44.0,30.35,ESE,105,2.0,7.0,59,0.00,,,0.00,,2013-11-08 17:22:00,
2013-11-08 11:43:00,59.0,43.0,30.35,NE,40,4.0,8.0,55,0.00,,,0.00,,2013-11-08 17:43:00,
2013-11-08 11:53:00,59.0,42.0,30.34,ENE,66,4.0,11.0,54,0.00,,,0.00,,2013-11-08 17:53:00,
2013-11-08 12:12:00,59.0,42.0,30.33,ENE,71,4.0,11.0,54,0.00,,,0.00,,2013-11-08 18:12:00,
2013-11-08 12:22:00,59.0,42.0,30.32,ESE,107,2.0,9.0,54,0.00,,,0.00,,2013-11-08 18:22:00,
2013-11-08 12:43:00,59.0,42.0,30.30,East,79,4.0,10.0,54,0.00,,,0.00,,2013-11-08 18:43:00,
2013-11-08 12:52:00,60.0,42.0,30.30,East,92,3.0,9.0,52,0.00,,,0.00,,2013-11-08 18:52:00,
2013-11-08 13:12:00,60.0,43.0,30.28,NE,51,2.0,8.0,53,0.00,,,0.00,,2013-11-08 19:12:00,
2013-11-08 13:22:00,60.0,42.0,30.28,North,10,6.0,8.0,51,0.00,,,0.00,,2013-11-08 19:22:00,
2013-11-08 13:42:00,61.0,43.0,30.27,NNE,14,5.0,10.0,51,0.00,,,0.00,,2013-11-08 19:42:00,
2013-11-08 13:52:00,61.0,42.0,30.27,NE,41,2.0,10.0,50,0.00,,,0.00,,2013-11-08 19:52:00,
2013-11-08 14:12:00,61.0,42.0,30.27,NE,37,5.0,9.0,49,0.00,,,0.00,,2013-11-08 20:12:00,
2013-11-08 14:22:00,61.0,42.0,30.26,ENE,62,1.0,5.0,50,0.00,,,0.00,,2013-11-08 20:22:00,
2013-11-08 14:42:00,61.0,42.0,30.26,NE,39,5.0,7.0,50,0.00,,,0.00,,2013-11-08 20:42:00,
2013-11-08 14:53:00,61.0,42.0,30.25,NE,49,4.0,9.0,49,0.00,,,0.00,,2013-11-08 20:53:00,
2013-11-08 15:12:00,61.0,42.0,30.25,NE,36,3.0,9.0,50,0.00,,,0.00,,2013-11-08 21:12:00,
2013-11-08 15:22:00,61.0,42.0,30.25,ENE,76,1.0,7.0,49,0.00,,,0.00,,2013-11-08 21:22:00,
2013-11-08 15:44:00,61.0,42.0,30.25,NE,43,5.0,10.0,50,0.00,,,0.00,,2013-11-08 21:44:00,
2013-11-08 15:54:00,61.0,42.0,30.25,NE,34,3.0,6.0,49,0.00,,,0.00,,2013-11-08 21:54:00,
2013-11-08 16:13:00,61.0,43.0,30.24,NE,36,3.0,6.0,51,0.00,,,0.00,,2013-11-08 22:13:00,
2013-11-08 16:24:00,60.0,42.0,30.24,ESE,119,0.0,2.0,51,0.00,,,0.00,,2013-11-08 22:24:00,
2013-11-08 16:43:00,60.0,44.0,30.24,NE,42,2.0,4.0,56,0.00,,,0.00,,2013-11-08 22:43:00,
2013-11-08 16:53:00,59.0,44.0,30.24,NNE,33,0.0,3.0,58,0.00,,,0.00,,2013-11-08 22:53:00,
2013-11-08 17:12:00,59.0,46.0,30.24,NNE,33,3.0,4.0,61,0.00,,,0.00,,2013-11-08 23:12:00,
2013-11-08 17:22:00,58.0,45.0,30.24,NNE,31,2.0,5.0,63,0.00,,,0.00,,2013-11-08 23:22:00,
2013-11-08 17:43:00,57.0,46.0,30.24,NNE,31,2.0,4.0,67,0.00,,,0.00,,2013-11-08 23:43:00,
2013-11-08 17:53:00,57.0,46.0,30.24,NNE,31,1.0,3.0,66,0.00,,,0.00,,2013-11-08 23:53:00,
2013-11-08 18:12:00,57.0,45.0,30.23,NNE,31,1.0,3.0,65,0.00,,,0.00,,2013-11-09 00:12:00,
2013-11-08 18:22:00,56.0,48.0,30.23,NNE,31,0.0,1.0,74,0.00,,,0.00,,2013-11-09 00:22:00,
2013-11-08 18:42:00,56.0,47.0,30.23,NNE,31,0.0,0.0,72,0.00,,,0.00,,2013-11-09 00:42:00,
2013-11-08 18:52:00,56.0,48.0,30.23,NNE,31,0.0,0.0,74,0.00,,,0.00,,2013-11-09 00:52:00,
2013-11-08 19:11:00,55.0,47.0,30.23,NNE,31,0.0,0.0,75,0.00,,,0.00,,2013-11-09 01:11:00,
2013-11-08 19:22:00,55.0,47.0,30.23,NNE,31,0.0,1.0,75,0.00,,,0.00,,2013-11-09 01:22:00,
2013-11-08 19:42:00,54.0,47.0,30.24,NNE,31,0.0,0.0,77,0.00,,,0.00,,2013-11-09 01:42:00,
2013-11-08 19:52:00,54.0,47.0,30.24,NNE,31,0.0,1.0,77,0.00,,,0.00,,2013-11-09 01:52:00,
2013-11-08 20:12:00,54.0,48.0,30.24,NNE,31,0.0,1.0,80,0.00,,,0.00,,2013-11-09 02:12:00,
2013-11-08 20:22:00,53.0,48.0,30.23,NNE,31,0.0,2.0,82,0.00,,,0.00,,2013-11-09 02:22:00,
2013-11-08 20:42:00,53.0,47.0,30.23,NNE,31,0.0,0.0,81,0.00,,,0.00,,2013-11-09 02:42:00,
2013-11-08 20:52:00,52.0,47.0,30.23,NNE,31,0.0,1.0,83,0.00,,,0.00,,2013-11-09 02:52:00,
2013-11-08 21:11:00,52.0,47.0,30.22,NNE,31,0.0,1.0,83,0.00,,,0.00,,2013-11-09 03:11:00,
2013-11-08 21:22:00,52.0,47.0,30.22,NNE,31,0.0,1.0,83,0.00,,,0.00,,2013-11-09 03:22:00,
2013-11-08 21:44:00,52.0,47.0,30.22,NNE,31,0.0,1.0,83,0.00,,,0.00,,2013-11-09 03:44:00,
2013-11-08 21:54:00,52.0,46.0,30.21,NNE,31,0.0,0.0,81,0.00,,,0.00,,2013-11-09 03:54:00,
2013-11-08 22:13:00,52.0,46.0,30.21,NNE,31,0.0,0.0,79,0.00,,,0.00,,2013-11-09 04:13:00,
2013-11-08 22:23:00,52.0,46.0,30.21,NNE,31,0.0,0.0,79,0.00,,,0.00,,2013-11-09 04:23:00,
2013-11-08 22:42:00,52.0,46.0,30.21,NNE,31,0.0,0.0,81,0.00,,,0.00,,2013-11-09 04:42:00,
2013-11-08 22:53:00,51.0,46.0,30.20,NNE,31,0.0,0.0,83,0.00,,,0.00,,2013-11-09 04:53:00,
2013-11-08 23:13:00,51.0,46.0,30.20,NNE,31,0.0,0.0,83,0.00,,,0.00,,2013-11-09 05:13:00,
2013-11-08 23:23:00,51.0,46.0,30.20,NNE,31,0.0,0.0,83,0.00,,,0.00,,2013-11-09 05:23:00,
2013-11-08 23:43:00,50.0,46.0,30.20,NNE,31,0.0,0.0,85,0.00,,,0.00,,2013-11-09 05:43:00,
2013-11-08 23:53:00,50.0,46.0,30.20,NNE,31,0.0,0.0,86,0.00,,,0.00,,2013-11-09 05:53:00,